Location: ????????
(38.4362°N, 22.8767°E)
Time: 15:27:51
(UTC+00:00)

Meteor 1-13 Rocket - Pass Details

Date: 23 April 2024
Orbit: 830 x 911 km, 81.3° (Epoch: 18 May)

Event Time Altitude Azimuth Distance (km) Brightness Sun altitude
Exits shadow 02:17:05 10° 190° (S) 2,541 6.3 -15.9°
Reaches altitude 10° 02:17:10 10° 190° (S) 2,512 6.3 -15.9°
Maximum altitude 02:22:54 84° 279° (W) 896 4.2 -14.9°
Drops below altitude 10° 02:28:48 10° 8° (N) 2,580 7.2 -13.9°
Sets 02:31:17 0° 9° (N) 3,533 8.0 -13.5°
